Location: Alta
(39.2070°N, 120.8111°W)
Time: 18:17:18
(UTC+00:00)

POLYITAN 1 - Pass Details

Date: 04 April 2023
Orbit: 575 x 592 km, 98.0° (Epoch: 01 June)

Event Time Altitude Azimuth Distance (km) Brightness Sun altitude
Rises 10:23:46 0° 11° (N) 2,808 ? -35.0°
Reaches altitude 10° 10:25:56 10° 10° (N) 1,901 ? -34.7°
Enters shadow 10:26:32 14° 10° (N) 1,655 ? -34.7°
